[[{"header":{"parameterUnit":"m.s-1","parameterCategory":1,"la1":30.2991,"la2":30.254,"lo1":-89.0895,"lo2":-89.0444,"dy":0.0017,"dx":0.0017,"nx":28,"ny":28,"refTime":"2023-10-02T21:00:00:Z","depth":0,"parameterNumber":2,"parameterNumberName":"U-component_of_WINDS"},"data":[0,0,0,0,0,0,0,0,0,0,0,0,0,0,0,0,0,0,0,0,0,0,0,0,0,0,0,0,0,0,0,0,0,0,0,0,0,0,0,0,0,0,0,0,0,0,0,0,0,0,0,0,0,0,0,0,0,0,-4.9712,-4.9712,0,-4.9688,-4.9688,-4.9688,-4.9551,-4.9548,-4.9545,-4.9542,-4.9519,-4.9522,-4.9524,0,0,0,0,0,0,0,0,0,0,0,0,0,-4.9642,-4.9644,-4.9712,-4.9712,-4.9711,-4.9688,-4.9688,-4.9688,-4.9552,-4.9548,-4.9544,-4.954,-4.9519,-4.9522,-4.9525,0,0,0,0,0,0,0,0,0,0,0,0,0,-4.9651,-4.9645,-4.9712,-4.9641,-4.9634,-4.9688,-4.9688,-4.9688,-4.9553,-4.9548,-4.9543,-4.9538,-4.9518,-4.9521,-4.9525,-4.9646,0,0,-4.9536,-4.9538,0,0,0,0,0,0,0,0,-4.9651,-4.9654,-4.9651,-4.9646,-4.9638,-4.9618,-4.9655,-4.9674,-4.9554,-4.9584,-4.9542,-4.9536,-4.9556,-4.9556,-4.9563,-4.9645,-4.9644,-4.9537,-4.9539,-4.954,-4.9541,0,0,0,0,0,0,0,-4.9651,-4.9654,-4.9702,-4.9652,-4.9644,-4.9611,-4.9607,-4.9658,-4.9598,-4.9581,-4.9571,-4.957,-4.9552,-4.956,-4.9561,-4.9644,-4.9536,-4.954,-4.9542,-4.9543,-4.9828,-4.9833,0,0,0,0,0,0,-4.966,-4.9655,-4.9703,-4.9702,-4.9633,-4.9616,-4.9612,-4.9629,-4.9597,-4.9587,-4.9574,-4.9564,-4.9556,-4.9557,-4.956,-4.9702,-4.954,-4.9544,-4.9546,-4.9822,-4.9829,-4.9834,0,0,0,0,0,0,-4.9659,-4.9665,-4.9704,-4.9676,-4.9678,-4.9623,-4.9644,-4.9631,-4.9639,-4.9592,-4.9581,-4.9593,-4.9552,-4.9555,-4.9626,-4.9699,-4.9546,-4.9549,-4.9816,-4.9824,-4.9832,-4.9985,0,0,0,0,0,0,-4.9657,-4.9666,-4.971,-4.9678,-4.968,-4.977,-4.9648,-4.9635,-4.9646,-4.9632,-4.9607,-4.9598,-4.9548,-4.9622,-4.963,-4.9701,-4.9552,-4.9809,-4.982,-4.9829,-4.9973,-4.9997,-5.0018,0,0,0,0,0,-4.9655,-4.9754,-4.9713,-4.972,-4.9735,-4.9775,-4.9776,-4.9717,-4.9652,-4.9697,-4.9667,-4.9599,-4.969,-4.963,-4.9638,-4.9712,-4.9804,-4.9817,-4.9828,-4.9963,-4.9993,-5.0017,0,0,0,0,0,0,-4.9797,-4.9749,-4.9702,-4.9794,-4.979,-4.9752,-4.9806,-4.9749,-4.9763,-4.975,-4.9676,-4.9671,-4.9755,-4.974,-4.9674,-4.9829,-4.9735,-4.975,-4.9835,-4.9863,-4.9885,-4.9887,-4.9555,0,0,0,0,0,-4.9839,-4.9875,-4.9831,-4.9916,-4.9916,-4.9862,-4.9877,-4.9832,-4.9825,-4.9822,-4.9797,-4.9794,-4.9821,-4.9841,-4.9864,-4.9971,-4.9964,-5.0026,-5.0048,-5.0066,-5.008,-5.0138,-5.0165,-4.9874,-4.9874,-4.9873,0,0,-4.9926,-4.9904,-4.9931,-4.9944,-4.9935,-4.9975,-4.9861,-4.9908,-4.9937,-4.9829,-4.9895,-4.9878,-4.9869,-4.9959,-4.9998,-4.995,-5.0159,-5.0082,-5.0097,-5.01,-5.0153,-5.0181,-5.0205,-4.9882,-4.988,-4.9879,0,0,-5.0104,-5.0091,-5.0161,-5.0155,-5.0143,-5.0107,-5.0125,-5.0096,-5.008,-5.0145,-5.0066,-5.01,-5.0149,-5.0147,-5.0152,-5.0334,-5.0272,-5.0343,-5.046,-5.0517,-5.054,-5.056,-5.0626,-5.0651,-5.0356,-5.0357,-5.0357,0,-5.0214,-5.027,-5.0204,-5.0257,-5.0266,-5.017,-5.0242,-5.0239,-5.0237,-5.0246,-5.0192,-5.0253,-5.024,-5.0329,-5.0374,-5.0381,-5.04,-5.0346,-5.0542,-5.0561,-5.0579,-5.0642,-5.0667,-5.0366,-5.0365,-5.0364,-5.0363,0,-5.0406,-5.0447,-5.0505,-5.0505,-5.0521,-5.0583,-5.0528,-5.0551,-5.0506,-5.0476,-5.0545,-5.0527,-5.0545,-5.0563,-5.0518,-5.0648,-5.0618,-5.0555,-5.0459,-5.0617,-5.0674,-5.0698,-5.0378,-5.0375,-5.0373,-5.037,0,0,-5.0672,-5.0637,-5.0659,-5.0659,-5.0641,-5.0671,-5.073,-5.0748,-5.0771,-5.0773,-5.0821,-5.0866,-5.0808,-5.0814,-5.0768,-5.0819,-5.0966,-5.0748,-5.0747,-5.0791,-5.111,-5.1159,-5.1187,-5.0925,-5.0929,-5.0933,-5.1111,0,-5.0845,-5.0942,-5.0886,-5.0992,-5.103,-5.0941,-5.0993,-5.0988,-5.0963,-5.0992,-5.0964,-5.0998,-5.0917,-5.092,-5.0966,-5.0939,-5.1029,-5.0925,-5.0971,-5.0973,-5.0977,-5.1217,-5.1268,-5.1437,-5.1133,-5.1136,-5.1139,0,-5.1058,-5.107,-5.1181,-5.1157,-5.1171,-5.1218,-5.1231,-5.126,-5.1254,-5.1232,-5.1241,-5.1184,-5.1241,-5.1147,-5.1227,-5.1157,-5.1173,-5.1163,-5.1168,-5.117,-5.1066,-5.1227,-5.1489,-5.1515,-5.1174,-5.1171,-5.1168,0,-5.1244,-5.1287,-5.1359,-5.1361,-5.1335,-5.1371,-5.1362,-5.135,-5.1366,-5.1378,-5.1387,-5.1407,-5.1417,-5.1434,-5.1385,-5.132,-5.1472,-5.1373,-5.1457,-5.1458,-5.1493,-5.1491,-5.1762,-5.1502,-5.1502,-5.1501,-5.1501,0,-5.1442,-5.1514,-5.1442,-5.1486,-5.1564,-5.15,-5.158,-5.1561,-5.1552,-5.1593,-5.1517,-5.1557,-5.1489,-5.1523,-5.1484,-5.1557,-5.1562,-5.1548,-5.1537,-5.1555,-5.1557,-5.1565,-5.1552,-5.1508,-5.1506,-5.1505,-5.1504,0,-5.1662,-5.1617,-5.169,-5.166,-5.1654,-5.1713,-5.1688,-5.1729,-5.1699,-5.1751,-5.176,-5.1713,-5.1749,-5.1702,-5.1733,-5.1707,-5.1808,-5.1779,-5.181,-5.1802,-5.1889,-5.1882,-5.2175,-5.2211,-5.1927,-5.193,-5.1932,0,-5.1792,-5.1845,-5.1821,-5.1843,-5.1839,-5.1874,-5.189,-5.1829,-5.1849,-5.1848,-5.1889,-5.1919,-5.1939,-5.2001,-5.1971,-5.1995,-5.1967,-5.2068,-5.197,-5.1987,-5.197,-5.1968,-5.1974,-5.2088,-5.2092,-5.2094,-5.2097,0,-5.2029,-5.2004,-5.2029,-5.2048,-5.2069,-5.208,-5.2086,-5.2109,-5.2046,-5.2072,-5.2108,-5.2124,-5.2156,-5.2188,-5.2204,-5.2196,-5.2137,-5.2128,-5.2149,-5.2168,-5.2185,-5.2178,-5.1866,-5.2121,-5.2119,-5.2117,-5.2116,-5.2115,-5.2208,-5.2252,-5.2243,-5.2274,-5.2273,-5.2281,-5.2318,-5.2294,-5.2322,-5.2344,-5.2307,-5.2353,-5.2348,-5.2364,-5.2363,-5.2399,-5.2355,-5.2385,-5.2393,-5.2402,-5.2416,-5.2179,-5.2402,-5.2401,-5.24,-5.24,-5.2399,0,-5.2442,-5.2432,-5.2462,-5.2473,-5.2498,-5.244,-5.2445,-5.247,-5.2512,-5.2511,-5.2534,-5.2576,-5.2607,-5.258,-5.2606,-5.264,-5.2614,-5.2649,-5.2646,-5.2646,-5.2452,-5.2432,-5.267,-5.267,-5.267,-5.267,-5.267,-5.267,-5.2566,-5.2638,-5.2613,-5.2685,-5.2674,-5.2718,-5.2726,-5.2734,-5.2734,-5.2785,-5.281,-5.2792,-5.2782,-5.2807,-5.2833,-5.2824,-5.2838,-5.2883,-5.2866,-5.2686,-5.2659,-5.2634,-5.2615,-5.2886,-5.2887,-5.3056,-5.3057,-5.3059]},{"header":{"parameterUnit":"m.s-1","parameterCategory":1,"la1":30.2991,"la2":30.254,"lo1":-89.0895,"lo2":-89.0444,"dy":0.0017,"dx":0.0017,"nx":28,"ny":28,"refTime":"2023-10-02T21:00:00:Z","depth":0,"parameterNumber":3,"parameterNumberName":"V-component_of_WINDS"},"data":[0,0,0,0,0,0,0,0,0,0,0,0,0,0,0,0,0,0,0,0,0,0,0,0,0,0,0,0,0,0,0,0,0,0,0,0,0,0,0,0,0,0,0,0,0,0,0,0,0,0,0,0,0,0,0,0,0,0,1.2202,1.2202,0,1.2159,1.2158,1.2158,1.2187,1.2188,1.2189,1.2191,1.2137,1.2135,1.2132,0,0,0,0,0,0,0,0,0,0,0,0,0,1.2303,1.2301,1.2202,1.2202,1.2201,1.2159,1.2158,1.2158,1.2186,1.2188,1.219,1.2191,1.2138,1.2135,1.2132,0,0,0,0,0,0,0,0,0,0,0,0,0,1.2259,1.23,1.2202,1.2211,1.2211,1.2159,1.2158,1.2157,1.2186,1.2188,1.219,1.2192,1.2139,1.2135,1.2131,1.2066,0,0,1.2119,1.2117,0,0,0,0,0,0,0,0,1.2261,1.2255,1.221,1.221,1.221,1.218,1.2174,1.2127,1.2186,1.2195,1.2191,1.2193,1.2149,1.2145,1.2132,1.2064,1.2062,1.2119,1.2116,1.2115,1.2114,0,0,0,0,0,0,0,1.2264,1.2257,1.2185,1.2209,1.2209,1.2214,1.221,1.2165,1.2161,1.2194,1.2197,1.2191,1.215,1.2136,1.2131,1.2061,1.2119,1.2115,1.2113,1.2111,1.1936,1.1934,0,0,0,0,0,0,1.2268,1.226,1.2186,1.2183,1.2242,1.2211,1.2206,1.2188,1.2162,1.216,1.219,1.2193,1.2142,1.2135,1.2129,1.205,1.2115,1.2111,1.2109,1.1939,1.1936,1.1933,0,0,0,0,0,0,1.227,1.2261,1.2188,1.2222,1.2213,1.2207,1.2186,1.2186,1.2172,1.2158,1.2157,1.2176,1.2143,1.2135,1.2082,1.2048,1.2109,1.2106,1.1941,1.1938,1.1935,1.1892,0,0,0,0,0,0,1.2273,1.2262,1.2238,1.2221,1.2211,1.2143,1.2184,1.2183,1.2166,1.2169,1.2146,1.2143,1.2144,1.2088,1.2078,1.2044,1.2102,1.1944,1.194,1.1936,1.1896,1.1887,1.188,0,0,0,0,0,1.2276,1.2226,1.2237,1.2228,1.2182,1.2142,1.2135,1.2139,1.2163,1.2138,1.213,1.2144,1.2055,1.2082,1.2072,1.2036,1.1946,1.1941,1.1936,1.1899,1.1889,1.188,0,0,0,0,0,0,1.2235,1.2224,1.2236,1.2179,1.2162,1.2147,1.2115,1.2128,1.2101,1.2105,1.2109,1.2103,1.2048,1.2037,1.2068,1.1971,1.2004,1.1996,1.198,1.1969,1.1962,1.1963,1.2099,0,0,0,0,0,1.222,1.2191,1.2182,1.2132,1.2123,1.2121,1.2103,1.2109,1.2089,1.2081,1.2069,1.2047,1.2014,1.1992,1.1961,1.1896,1.189,1.1866,1.1858,1.1851,1.1843,1.1807,1.1796,1.1917,1.1917,1.1917,0,0,1.2187,1.2178,1.2158,1.2124,1.2111,1.2077,1.2114,1.2077,1.2052,1.2074,1.2024,1.2015,1.1991,1.1932,1.1905,1.192,1.181,1.1845,1.184,1.1835,1.1801,1.1789,1.1779,1.1913,1.1914,1.1914,0,0,1.211,1.2102,1.2059,1.2046,1.2028,1.2027,1.2017,1.2001,1.1996,1.1947,1.1963,1.1932,1.1875,1.1858,1.1841,1.176,1.1771,1.175,1.1706,1.1671,1.1661,1.1652,1.1621,1.161,1.1743,1.1743,1.1743,0,1.2071,1.2024,1.2035,1.1998,1.1981,1.2004,1.196,1.1946,1.1917,1.1904,1.1923,1.1853,1.1839,1.1775,1.1756,1.1743,1.1729,1.1751,1.1662,1.1654,1.1646,1.1616,1.1604,1.1741,1.1741,1.1741,1.1741,0,1.1976,1.1943,1.1911,1.1885,1.1866,1.1825,1.1827,1.1806,1.1814,1.1811,1.1759,1.1744,1.171,1.1696,1.1702,1.1633,1.1643,1.1663,1.1694,1.1631,1.1603,1.1592,1.1737,1.1738,1.1738,1.1739,0,0,1.1867,1.1851,1.1839,1.1827,1.181,1.1783,1.1744,1.1714,1.1694,1.1674,1.1638,1.1592,1.161,1.1591,1.1596,1.1565,1.15,1.1588,1.1587,1.157,1.142,1.1404,1.139,1.1509,1.1507,1.1506,1.1422,0,1.1787,1.172,1.173,1.1664,1.1633,1.1656,1.1621,1.1605,1.1602,1.1573,1.1568,1.1534,1.1562,1.1551,1.1522,1.1514,1.1469,1.1521,1.1473,1.1471,1.1474,1.1376,1.1358,1.1279,1.1411,1.1409,1.1408,0,1.1684,1.1663,1.1595,1.1583,1.157,1.1539,1.1512,1.1486,1.1468,1.1468,1.1449,1.1459,1.1417,1.1453,1.1394,1.1428,1.141,1.1403,1.14,1.1393,1.1433,1.1362,1.1254,1.1241,1.1391,1.1392,1.1394,0,1.1608,1.1564,1.1517,1.1507,1.1492,1.147,1.1462,1.1447,1.1428,1.1405,1.1392,1.1363,1.1346,1.1323,1.1324,1.1351,1.1263,1.13,1.1258,1.1258,1.1235,1.1235,1.1118,1.1229,1.1229,1.1229,1.123,0,1.1516,1.1472,1.1483,1.1454,1.1406,1.1418,1.1369,1.1364,1.135,1.1319,1.1337,1.1307,1.1313,1.1282,1.1283,1.1232,1.1225,1.1221,1.1221,1.1217,1.1217,1.1202,1.1206,1.1226,1.1227,1.1227,1.1228,0,1.1421,1.1427,1.1377,1.1369,1.1366,1.1331,1.1322,1.1294,1.1294,1.1254,1.1245,1.1243,1.1208,1.1209,1.1168,1.1168,1.1105,1.1113,1.1111,1.1112,1.1069,1.1072,1.0935,1.0917,1.1042,1.1041,1.104,0,1.136,1.1327,1.1317,1.1299,1.129,1.1261,1.1243,1.1254,1.1234,1.1213,1.1186,1.1153,1.1127,1.1069,1.1062,1.1031,1.1036,1.0991,1.1031,1.1028,1.1032,1.1032,1.1028,1.0981,1.098,1.0979,1.0978,0,1.1249,1.1254,1.123,1.1206,1.1185,1.1166,1.1149,1.1133,1.1142,1.1118,1.1084,1.1064,1.1025,1.099,1.0961,1.095,1.0964,1.0966,1.0954,1.0948,1.0947,1.0944,1.1086,1.0968,1.0969,1.097,1.097,1.0971,1.1167,1.1139,1.1128,1.1099,1.1089,1.1073,1.1046,1.1044,1.1017,1.0987,1.0995,1.0956,1.0939,1.0901,1.0889,1.0856,1.0872,1.0855,1.085,1.0845,1.0839,1.0956,1.0851,1.0852,1.0852,1.0852,1.0852,0,1.1055,1.105,1.1024,1.1001,1.0978,1.0999,1.0982,1.096,1.0927,1.0912,1.0887,1.0847,1.0815,1.0808,1.0776,1.0752,1.0757,1.0743,1.0742,1.0739,1.0828,1.084,1.0739,1.0739,1.0739,1.0739,1.0739,1.0739,1.0993,1.0947,1.0951,1.0899,1.0894,1.0858,1.0846,1.0831,1.0819,1.0775,1.075,1.0747,1.0734,1.0702,1.0673,1.0672,1.0657,1.064,1.064,1.0722,1.0733,1.0744,1.0755,1.0638,1.0637,1.0554,1.0553,1.0552]}]]